Regional Weather Roundup
Issued by NWS Midland/Odessa, TX

Home | Current Version | Previous Version | Text Only | Print | Product List | Glossary On
Versions: 1 2 3 4 5 6 7 8 9 10 11 12 13 14 15 16 17 18 19 20 21 22 23 24 25 26 27 28 29 30 31 32 33 34 35 36 37 38 39 40 41 42 43 44 45 46 47 48 49 50
000
ASUS44 KMAF 211301
RWRMAF
MIDLAND AREA WEATHER ROUNDUP
NATIONAL WEATHER SERVICE MIDLAND TX
800 AM CDT SAT OCT 21 2017

...IN SOUTHWEST TEXAS AND SOUTHEAST NEW MEXICO...

CITY           SKY/WX    TMP DP  RH WIND       PRES   REMARKS
ALPINE         CLOUDY    59  49  71 SW6       30.04R
ANDREWS        CLOUDY    60  60 100 S13G18    29.89R
ARTESIA        CLEAR     57  52  82 CALM      29.88R
BIG SPRING     CLOUDY    66  62  86 S10G17    29.91S
CARLSBAD       CLEAR     64  51  62 SW12      29.86R
DRYDEN           N/A     65  64  97 VRB6      29.89R
FORT STOCKTON  CLEAR     61  59  93 S13       29.89S
GUAD PASS      CLEAR     62  45  53 W36G49    29.95R
HOBBS          CLOUDY    59  57  94 S9        29.89R
LAMESA         PTSUNNY   61  59  94 S8        29.88R FOG
MARFA          CLOUDY    45  43  93 N6        30.02R
MIDLAND AIRPK  CLEAR     64  60  86 S9        29.89R
MIDLAND INTL   CLEAR     63  59  87 MISG      29.88S
ODESSA         NOT AVBL
PECOS          CLEAR     57  56  97 NE3       29.88R FOG
PRESIDIO       FAIR      62  52  69 CALM      29.93R
SEMINOLE       FOG       54  54 100 S3        29.89S VSB<1/4
SNYDER         CLOUDY    67  63  86 S12       29.88R
WINK           CLEAR     59  59 100 SE7       29.87R FOG
$$
...OTHER STATIONS IN TEXAS...

CITY           SKY/WX    TMP DP  RH WIND       PRES   REMARKS
ABILENE        PTCLDY    67  64  90 S15G23    29.86R
AMARILLO       CLEAR     57  56  96 S15       29.81R FOG
AUSTIN         CLOUDY    73  72  96 S8        29.92S
BROWNSVILLE    CLEAR     74  74 100 MISG      29.89R
CORPUS CHRISTI PTCLDY    69  69 100 S3        29.89R
DALLAS FTW     MOCLDY    73  68  84 S12       29.89R
DEL RIO        CLOUDY    70  69  97 SE13      29.87S
EL PASO        PTCLDY    65  46  50 S5        29.93R
HOUSTON INT    MOCLDY    71  71 100 E5        29.96S FOG
LUBBOCK        CLOUDY    62  59  90 S20G28    29.84S
SAN ANGELO     CLOUDY    70  63  78 S8        29.88R
SAN ANTONIO    CLOUDY    73  70  90 S9        29.93S
WACO           MOCLDY    71  69  93 S14       29.91F
WICHITA FALLS  CLOUDY    68  65  90 S23G32    29.75R
$$
...OTHER LOCATIONS IN NEW MEXICO...

CITY           SKY/WX    TMP DP  RH WIND       PRES   REMARKS
ALAMOGORDO     CLEAR     57  45  62 SE6       29.94R
ALBUQUERQUE    MOCLDY    56  33  42 W9        29.96R
CANNON AFB     CLOUDY    54  54 100 W10       29.87R
CLOVIS         CLOUDY    53  50  89 SW10      29.86R
HOLLOMAN AFB   CLEAR     65  45  48 SW10G22   29.93R
ROSWELL        CLOUDY    51  49  92 SW10      29.85R
RUIDOSO        CLEAR     54  39  58 SW23      30.01S
SANTA FE       CLOUDY    50  37  61 W12       29.94R
TRUTH OR CONSE CLEAR     55  41  59 VRB5      29.93R
TUCUMCARI      CLOUDY    55  51  86 SW6       29.79R
$$



USA.gov is the U.S. government's official web portal to all federal, state and local government web resources and services.